Preview of NWS' New Version of Forecast
This preview is not operational and should not be used for support decisions.

Regional Weather Roundup (RWR)

Issued by National Weather Service (NWS)

                            
000
ASUS46 KSEW 210210
RWRWA 

WASHINGTON REGIONAL WEATHER ROUNDUP
NATIONAL WEATHER SERVICE SEATTLE WA
700 PM PDT FRI SEP 20 2019

NOTE:"FAIR" INDICATES FEW OR NO CLOUDS BELOW 12,000 FEET WITH NO 
SIGNIFICANT WEATHER AND/OR OBSTRUCTIONS TO VISIBILITY.

WAZ507-509-555>559-210300-
SEATTLE, TACOMA, EVERETT, AND VICINITY
  
CITY           SKY/WX    TMP DP  RH WIND       PRES   REMARKS
EVERETT        PTCLDY    62  52  69 CALM      30.12F                  
BOEING FIELD   MOCLDY    67  53  61 CALM      30.11F                  
RENTON         MOCLDY    65  54  67 CALM      30.10F                  
SEATAC AIRPORT MOCLDY    66  52  60 W3        30.12S                  
JBLM-MCCHORD   MOCLDY    66  58  75 W3        30.11F                  
PUYALLUP       MOCLDY    64  57  77 CALM      30.12S                  
BREMERTON      CLOUDY    64  55  72 CALM      30.12S                  
JBLM-FT LEWIS  MOCLDY    66  61  84 CALM      30.10F                  
TACOMA NARROWS MOCLDY    64  52  64 CALM      30.11F                  
$$
 
WAZ001-503-506-510-514-515-210300-
NORTH INTERIOR
  
CITY           SKY/WX    TMP DP  RH WIND       PRES   REMARKS
BELLINGHAM     PTCLDY    61  53  75 S3        30.10S                  
FRIDAY HARBOR  CLEAR     57  52  83 CALM      30.11S                  
EASTSOUND      CLEAR     63  55  77 S5        30.09S                  
PORT ANGELES   MOCLDY    60  55  83 CALM      30.12R                  
EDIZ HOOK      CLOUDY    59  56  90 CALM      30.11R                  
PORT TOWNSEND  FAIR      63  55  77 CALM      30.10S                  
NAS WHIDBEY    MOCLDY    63  52  67 CALM      30.14F                  
ARLINGTON      PTCLDY    63  56  78 S5        30.11F                  
BURLINGTON     CLEAR     61  54  77 CALM      30.10F                  
$$
 
WAZ020-022-039-040-504-511-512-210300-
SOUTHWEST INTERIOR
  
CITY           SKY/WX    TMP DP  RH WIND       PRES   REMARKS
SHELTON        MOCLDY    66  55  67 SW7       30.08F                  
OLYMPIA        PTCLDY    66  53  63 W5        30.11S                  
CHEHALIS       FAIR      64  59  82 CALM      30.11F                  
KELSO          CLOUDY    67  57  70 CALM      30.12S                  
VANCOUVER      MOCLDY    66  55  67 CALM      30.11S                  
SCAPPOOSE, OR  CLOUDY    66  58  75 MISG      30.11S                  
PORTLAND, OR   MOCLDY    66  55  67 S5        30.12S                  
$$
 
WAZ021-516-517-210300-
WASHINGTON COAST
  
CITY           SKY/WX    TMP DP  RH WIND       PRES   REMARKS
FORKS          CLOUDY    59  56  89 SW5       30.12S                  
HOQUIAM        CLOUDY    62  59  90 W8        30.13S                  
ASTORIA, OR    CLOUDY    62  58  86 W6        30.13S                  
$$
 
WAZ019-023-024-040-567>569-210300-
CASCADE MOUNTAINS AND COLUMBIA GORGE
  
CITY           SKY/WX    TMP DP  RH WIND       PRES   REMARKS
STAMPEDE PASS  NOT AVBL                                               
TROUTDALE, OR  MOCLDY    65  55  70 S3        30.12S                  
HOOD RIVER, OR PTCLDY    63  48  59 CALM      30.08R                  
THE DALLES, OR PTCLDY    67  48  50 W7G22     30.03S                  
$$

WAZ026-027-041>044-520-521-210300-
EAST SLOPES
  
CITY           SKY/WX    TMP DP  RH WIND       PRES   REMARKS
OMAK           MOCLDY    63  42  46 N7        29.98S                  
WENATCHEE      PTCLDY    67  41  38 W16       29.98R                  
ELLENSBURG     CLEAR     62  43  49 NW21G30   30.02R                  
YAKIMA         PTCLDY    67  42  40 NW9G22    30.01R                  
SUNNYSIDE ARPT MOCLDY    68  54  60 E6        29.98S                  
YAKIMA TC      FAIR      65  40  40 NW10      30.01R                  
$$

WAZ028-034-035-210300-
COLUMBIA BASIN
  
CITY           SKY/WX    TMP DP  RH WIND       PRES   REMARKS
EPHRATA        MOCLDY    69  45  41 SW5       29.96R                  
MOSES LAKE     MOCLDY    73  45  36 S3        29.97R                  
PASCO          CLEAR     72  47  40 S9        29.99S                  
RICHLAND ARPT  PTCLDY    71  48  43 S6        29.98                   
HERMISTON, OR  CLEAR     67  49  52 SE6       29.99F                  
$$

WAZ036>038-210300-
NORTHEAST WASHINGTON
  
CITY           SKY/WX    TMP DP  RH WIND       PRES   REMARKS
SPOKANE GEIGER MOCLDY    57  49  74 S8        30.00S                  
SPOKANE FELTS  LGT RAIN  62  49  62 S8        30.00R                  
FAIRCHILD AFB  MOCLDY    55  55 100 S6        30.00S                  
COEURDALENE,ID MOCLDY    58  50  75 SE3       30.01F                  
DEER PARK      LGT RAIN  58  51  78 S7        30.00S                  
$$

WAZ029>033-210300-
SOUTHEAST WASHINGTON
  
CITY           SKY/WX    TMP DP  RH WIND       PRES   REMARKS
PULLMAN        PTCLDY    56  46  69 W5        30.05S                  
LEWISTON, ID   CLEAR     61  47  59 S8        30.02R                  
WALLA WALLA    MOCLDY    66  46  48 S6        30.02S                  
PENDLETON, OR  PTCLDY    63  46  54 S5        30.02S                  
$$